Location: LDNL
(36.4545°S, 141.6685°E)
Time: 22:16:05
(UTC+11:00)

Courier 1B Rocket - Visible Passes

Search period start: 30 January 2023 00:00
Search period end: 09 February 2023 00:00
Orbit: 920 x 1202 km, 28.3° (Epoch: 29 January)

Date Brightness Start Highest point End Pass type
(mag) Time Alt. Az. Time Alt. Az. Time Alt. Az.
31 Jan 7.2 05:35:37 10° NNW 05:40:30 18° NNE 05:45:22 10° ENE visible
01 Feb 7.3 04:37:31 11° NNE 04:39:30 12° NNE 04:42:22 10° NE visible
02 Feb 6.8 05:26:32 14° NNW 05:31:15 24° NNE 05:37:14 10° ENE visible
03 Feb 6.9 04:29:10 17° NNE 04:30:14 18° NNE 04:35:09 10° ENE visible
03 Feb 6.3 06:16:11 10° NW 06:23:10 36° NNE 06:30:11 10° ENE visible
04 Feb 7.5 03:31:46 10° NE 03:31:46 10° NE 03:32:01 10° NE visible
04 Feb 6.4 05:18:08 20° NNW 05:22:02 30° NNE 05:28:41 10° ENE visible
05 Feb 6.6 04:20:44 24° NNE 04:20:59 24° NNE 04:26:57 10° ENE visible
05 Feb 6.1 06:07:05 11° WNW 06:14:02 42° N 06:21:19 10° ENE visible
06 Feb 7.3 03:23:19 13° ENE 03:23:19 13° ENE 03:24:46 10° ENE visible
06 Feb 6.1 05:09:40 26° NNW 05:12:52 36° NNE 05:19:55 10° ENE visible
07 Feb 6.3 04:12:16 30° NNE 04:12:16 30° NNE 04:18:21 10° ENE visible
07 Feb 5.9 05:58:37 14° WNW 06:04:56 45° N 06:12:21 10° ENE visible
08 Feb 7.3 03:14:53 15° ENE 03:14:53 15° ENE 03:16:32 10° ENE visible
08 Feb 5.9 05:01:14 32° NNW 05:03:45 42° N 05:11:00 10° ENE visible
